CW4672 Weather Reports


time (UTC)temp
C
wind
direction
speed
KPH
gust
KPH
rain 1hr
cm
rain 24hr
cm
rain mn
cm
humidity
%
barometer
mb
20260507062842 11 245 0.0 0.0 0.00 0.00 0.00 82 1021.0
20260507062331 11 269 0.0 0.0 0.00 0.00 0.00 81 1021.0
20260507061820 11 225 0.0 0.0 0.00 0.00 0.00 81 1021.0
20260507061329 11 269 0.0 0.0 0.00 0.00 0.00 80 1020.9
20260507060819 11 254 0.0 0.0 0.00 0.00 0.00 81 1021.0
20260507060328 11 263 0.0 0.0 0.00 0.00 0.00 81 1021.0
20260507055817 11 238 0.0 0.0 0.00 0.00 0.00 80 1020.9
20260507055328 11 252 0.0 0.0 0.00 0.00 0.00 81 1020.9
20260507054818 11 280 0.0 0.0 0.00 0.00 0.00 81 1020.9
20260507054328 11 261 0.0 0.0 0.00 0.00 0.00 82 1020.9
20260507053817 11 265 0.0 0.0 0.00 0.00 0.00 82 1020.9
20260507053312 11 273 0.0 0.0 0.00 0.00 0.00 82 1021.0
20260507052822 11 275 0.0 0.0 0.00 0.00 0.00 82 1020.9
20260507052313 11 255 0.0 0.0 0.00 0.00 0.00 82 1020.8
20260507051825 11 251 0.0 0.0 0.00 0.00 0.00 82 1020.8
20260507051314 11 234 0.0 0.0 0.00 0.00 0.00 82 1020.9
20260507050825 11 298 0.0 0.0 0.00 0.00 0.00 81 1020.9
20260507050315 11 276 0.0 0.0 0.00 0.00 0.00 82 1021.0
20260507045824 11 259 0.0 0.0 0.00 0.00 0.00 82 1020.9
20260507045314 11 301 0.0 0.0 0.00 0.00 0.00 82 1021.0
20260507044827 11 275 0.0 0.0 0.00 0.00 0.00 82 1021.0
20260507044337 12 298 0.0 0.0 0.00 0.00 0.00 82 1021.0
20260507043826 12 242 0.0 0.0 0.00 0.00 0.00 83 1021.0
20260507043317 12 312 0.0 0.0 0.00 0.00 0.00 83 1021.0
20260507042826 12 271 0.0 0.0 0.00 0.00 0.00 83 1021.0
20260507042316 12 283 0.0 0.0 0.00 0.00 0.00 83 1020.9
20260507041825 12 238 0.0 0.0 0.00 0.00 0.00 83 1020.9
20260507041315 12 267 0.0 0.0 0.00 0.00 0.00 83 1020.9
20260507040827 12 246 0.0 0.0 0.00 0.00 0.00 83 1020.9
20260507040317 12 265 0.0 0.0 0.00 0.00 0.00 82 1020.8
20260507035832 12 232 0.0 0.0 0.00 0.00 0.00 82 1020.8
20260507035322 12 246 0.0 0.0 0.00 0.00 0.00 82 1020.7
20260507034812 12 269 0.0 0.0 0.00 0.00 0.00 82 1020.7
20260507034342 12 236 0.0 0.0 0.00 0.00 0.00 81 1020.7
20260507033851 12 244 0.0 0.0 0.00 0.00 0.00 81 1020.6
20260507033321 12 271 0.0 0.0 0.00 0.00 0.00 81 1020.6
20260507032831 12 312 0.0 1.6 0.00 0.00 0.00 81 1020.6
20260507032322 12 247 0.0 1.6 0.00 0.00 0.00 81 1020.6
20260507031813 12 283 0.0 0.0 0.00 0.00 0.00 82 1020.6
20260507031323 12 291 0.0 0.0 0.00 0.00 0.00 82 1020.5
20260507030817 12 269 0.0 0.0 0.00 0.00 0.00 81 1020.4
20260507030327 12 229 0.0 0.0 0.00 0.00 0.00 81 1020.4
20260507025818 12 250 0.0 0.0 0.00 0.00 0.00 82 1020.3
20260507025328 12 286 0.0 0.0 0.00 0.00 0.00 82 1020.4
20260507024819 12 243 0.0 0.0 0.00 0.00 0.00 82 1020.3
20260507024348 13 277 0.0 0.0 0.00 0.00 0.00 81 1020.3
20260507023817 13 233 0.0 0.0 0.00 0.00 0.00 81 1020.2
20260507023327 13 214 0.0 0.0 0.00 0.00 0.00 81 1020.2
20260507022816 13 221 0.0 0.0 0.00 0.00 0.00 81 1020.1
20260507022325 13 254 0.0 1.6 0.00 0.00 0.00 80 1020.1
20260507021820 13 220 0.0 1.6 0.00 0.00 0.00 80 1020.1
20260507021329 13 246 0.0 0.0 0.00 0.00 0.00 80 1020.2
20260507020819 13 262 0.0 0.0 0.00 0.00 0.00 80 1020.2
20260507020329 13 277 0.0 0.0 0.00 0.00 0.00 79 1020.2
20260507015819 13 215 0.0 0.0 0.00 0.00 0.00 79 1020.2
20260507015329 13 226 0.0 0.0 0.00 0.00 0.00 78 1020.3
20260507014820 13 275 0.0 9.7 0.00 0.00 0.00 78 1020.2
20260507014350 13 273 0.0 9.7 0.00 0.00 0.00 78 1020.2
20260507013820 13 273 0.0 0.0 0.00 0.00 0.00 78 1020.2
20260507013334 13 243 0.0 0.0 0.00 0.00 0.00 79 1020.1
20260507012823 14 300 0.0 0.0 0.00 0.00 0.00 78 1020.1
20260507012313 14 250 0.0 0.0 0.00 0.00 0.00 77 1020.0
20260507011824 14 274 0.0 0.0 0.00 0.00 0.00 78 1020.0
20260507011314 14 271 0.0 0.0 0.00 0.00 0.00 77 1020.0
20260507010824 14 5 0.0 0.0 0.00 0.00 0.00 78 1020.0
20260507010315 14 222 0.0 0.0 0.00 0.00 0.00 77 1020.1
20260507005825 15 303 0.0 8.0 0.00 0.00 0.00 76 1020.1
20260507005336 15 234 0.0 8.0 0.00 0.00 0.00 76 1020.0
20260507004826 15 278 0.0 0.0 0.00 0.00 0.00 76 1020.1
20260507004316 15 257 0.0 0.0 0.00 0.00 0.00 77 1020.2
20260507003831 15 306 0.0 0.0 0.00 0.00 0.00 76 1020.2
20260507003321 15 240 0.0 0.0 0.00 0.00 0.00 77 1020.1
20260507002830 15 242 0.0 0.0 0.00 0.00 0.00 78 1020.2
20260507002321 15 261 0.0 0.0 0.00 0.00 0.00 77 1020.2
20260507001832 15 275 0.0 0.0 0.00 0.00 0.00 76 1020.2
20260507001322 15 228 0.0 0.0 0.00 0.00 0.00 76 1020.2
20260507000813 15 271 0.0 1.6 0.00 0.00 0.00 78 1020.2
20260507000324 15 205 0.0 1.6 0.00 0.00 0.00 78 1020.2
20260506235820 15 269 0.0 0.0 0.00 0.00 0.00 78 1020.2
20260506235331 15 311 0.0 0.0 0.00 0.00 0.00 76 1020.2
20260506234821 15 332 0.0 0.0 0.00 0.00 0.00 77 1020.1
20260506234332 15 273 0.0 0.0 0.00 0.00 0.00 77 1020.1
20260506233822 15 261 0.0 0.0 0.00 0.00 0.00 76 1020.1
20260506233314 15 277 0.0 0.0 0.00 0.00 0.00 77 1020.1
20260506232823 15 238 0.0 0.0 0.00 0.00 0.00 76 1020.1
20260506232313 16 268 0.0 1.6 0.00 0.00 0.00 77 1020.1
20260506231824 16 350 0.0 1.6 0.00 0.00 0.00 78 1020.1
20260506231313 15 301 0.0 0.0 0.00 0.00 0.00 78 1020.1
20260506230843 15 235 0.0 0.0 0.00 0.00 0.00 75 1020.0
20260506230352 15 254 0.0 0.0 0.00 0.00 0.00 75 1020.0
20260506225821 15 288 0.0 0.0 0.00 0.00 0.00 76 1020.0
20260506225336 15 309 0.0 0.0 0.00 0.00 0.00 76 1020.0
20260506224824 15 240 0.0 0.0 0.00 0.00 0.00 75 1020.1
20260506224315 15 306 0.0 0.0 0.00 0.00 0.00 77 1020.1
20260506223846 15 270 0.0 0.0 0.00 0.00 0.00 76 1020.2
20260506223334 15 209 0.0 0.0 0.00 0.00 0.00 76 1020.2
20260506222823 15 222 0.0 0.0 0.00 0.00 0.00 76 1020.2
20260506222332 15 194 0.0 0.0 0.00 0.00 0.00 77 1020.2
20260506221821 16 228 0.0 0.0 0.00 0.00 0.00 77 1020.3
20260506221350 16 240 0.0 0.0 0.00 0.00 0.00 76 1020.3
20260506220819 16 211 0.0 0.0 0.00 0.00 0.00 78 1020.4
20260506220328 16 219 0.0 0.0 0.00 0.00 0.00 79 1020.4
20260506215819 15 218 0.0 0.0 0.00 0.00 0.00 77 1020.4
20260506215312 16 273 0.0 0.0 0.00 0.00 0.00 77 1020.4
20260506214823 15 273 0.0 0.0 0.00 0.00 0.00 75 1020.4
20260506214313 15 339 0.0 0.0 0.00 0.00 0.00 76 1020.4
20260506213823 15 179 0.0 0.0 0.00 0.00 0.00 78 1020.3
20260506213313 15 204 0.0 0.0 0.00 0.00 0.00 79 1020.4
20260506212824 15 244 0.0 0.0 0.00 0.00 0.00 80 1020.3
20260506212334 15 229 0.0 0.0 0.00 0.00 0.00 80 1020.4
20260506211843 15 254 0.0 0.0 0.00 0.00 0.00 79 1020.4
20260506211312 15 234 0.0 0.0 0.00 0.00 0.00 80 1020.4
20260506210822 15 231 0.0 0.0 0.00 0.00 0.00 80 1020.4
20260506210315 15 223 0.0 0.0 0.00 0.00 0.00 80 1020.4
20260506205825 15 246 0.0 0.0 0.00 0.00 0.00 80 1020.4
20260506205316 15 266 0.0 0.0 0.00 0.00 0.00 80 1020.4
20260506204826 15 278 0.0 0.0 0.00 0.00 0.00 81 1020.4
20260506204315 15 249 0.0 0.0 0.00 0.00 0.00 81 1020.4
20260506203825 14 296 0.0 0.0 0.00 0.00 0.00 82 1020.4
20260506203314 14 257 0.0 0.0 0.00 0.00 0.00 83 1020.5
20260506202824 14 247 0.0 0.0 0.00 0.00 0.00 82 1020.4
20260506202315 14 233 0.0 0.0 0.00 0.00 0.00 83 1020.4
20260506201825 14 211 0.0 0.0 0.00 0.00 0.00 83 1020.4
20260506201318 14 259 0.0 0.0 0.00 0.00 0.00 82 1020.4
20260506200828 13 259 0.0 0.0 0.00 0.00 0.00 83 1020.4
20260506200338 13 215 0.0 0.0 0.00 0.00 0.00 83 1020.3
20260506195827 13 242 0.0 0.0 0.00 0.00 0.00 84 1020.4
20260506195316 13 232 0.0 0.0 0.00 0.00 0.00 84 1020.4
20260506194826 13 252 0.0 0.0 0.00 0.00 0.00 84 1020.3
20260506194316 13 186 0.0 0.0 0.00 0.00 0.00 86 1020.3
20260506193846 13 268 0.0 0.0 0.00 0.00 0.00 86 1020.3
20260506193315 13 5 0.0 0.0 0.00 0.00 0.00 88 1020.4
20260506192825 13 338 0.0 0.0 0.00 0.00 0.00 88 1020.5
20260506192314 13 333 0.0 0.0 0.00 0.00 0.00 89 1020.4
20260506191824 12 311 0.0 0.0 0.00 0.00 0.00 88 1020.4
20260506191320 12 307 0.0 0.0 0.00 0.00 0.00 88 1020.6
20260506190830 12 263 0.0 0.0 0.00 0.00 0.00 89 1020.6
20260506190319 12 263 0.0 0.0 0.00 0.00 0.00 89 1020.5
20260506185848 12 303 0.0 0.0 0.00 0.00 0.00 88 1020.5
20260506185318 12 301 0.0 0.0 0.00 0.00 0.00 89 1020.4
20260506184828 12 267 0.0 0.0 0.00 0.00 0.00 90 1020.4
20260506184318 12 215 0.0 0.0 0.00 0.00 0.00 89 1020.2
20260506183848 12 249 0.0 0.0 0.00 0.00 0.00 90 1020.3
20260506183317 12 218 0.0 0.0 0.00 0.00 0.00 90 1020.3
20260506182826 12 195 0.0 0.0 0.00 0.00 0.00 91 1020.2
20260506182320 12 207 0.0 0.0 0.00 0.00 0.00 90 1020.3
20260506181831 12 269 0.0 0.0 0.00 0.00 0.00 90 1020.4
20260506181340 12 222 0.0 0.0 0.00 0.00 0.00 92 1020.4
20260506180830 12 252 0.0 0.0 0.00 0.00 0.00 92 1020.3
20260506180320 12 229 0.0 0.0 0.00 0.00 0.00 92 1020.2
20260506175830 12 193 0.0 0.0 0.00 0.00 0.00 92 1020.1
20260506175321 12 239 0.0 0.0 0.00 0.00 0.00 92 1020.2
20260506174851 12 219 0.0 0.0 0.00 0.00 0.00 92 1020.2
20260506174321 12 239 0.0 0.0 0.00 0.00 0.00 92 1020.3
20260506173833 12 245 0.0 0.0 0.00 0.00 0.00 92 1020.2
20260506173323 12 265 0.0 0.0 0.00 0.00 0.00 92 1020.2
20260506172816 12 239 0.0 0.0 0.00 0.00 0.00 92 1020.1
20260506172326 12 255 0.0 0.0 0.00 0.00 0.00 92 1020.2
20260506171817 12 232 0.0 0.0 0.00 0.00 0.00 92 1020.2
20260506171328 12 256 0.0 0.0 0.00 0.00 0.00 92 1020.2
20260506170819 11 259 0.0 0.0 0.00 0.00 0.00 92 1020.1
20260506170328 11 240 0.0 0.0 0.00 0.00 0.00 92 1020.1
20260506165818 12 237 0.0 0.0 0.00 0.00 0.00 93 1020.0
20260506165328 12 249 0.0 0.0 0.00 0.00 0.00 93 1020.1
20260506164822 12 227 0.0 0.0 0.00 0.00 0.00 93 1019.9
20260506164312 12 227 0.0 0.0 0.00 0.00 0.00 94 1019.8
20260506163822 12 276 0.0 0.0 0.00 0.00 0.00 94 1019.8
20260506163312 12 199 0.0 0.0 0.00 0.00 0.00 94 1019.7
20260506162822 11 187 0.0 0.0 0.00 0.00 0.00 94 1019.8
20260506162333 11 231 0.0 0.0 0.00 0.00 0.00 95 1019.8
20260506161822 11 231 0.0 0.0 0.00 0.00 0.00 95 1019.7
20260506161312 11 231 0.0 0.0 0.00 0.00 0.00 95 1019.6
20260506160823 11 231 0.0 0.0 0.00 0.00 0.00 94 1019.7
20260506160314 11 231 0.0 0.0 0.00 0.00 0.00 94 1019.7
20260506155830 11 231 0.0 0.0 0.00 0.00 0.00 95 1019.7
20260506155318 11 231 0.0 0.0 0.00 0.00 0.00 95 1019.6
20260506154828 11 231 0.0 0.0 0.00 0.00 0.00 95 1019.6
20260506154319 11 231 0.0 0.0 0.00 0.00 0.00 95 1019.6
20260506153830 11 231 0.0 0.0 0.00 0.00 0.00 95 1019.5
20260506153321 11 231 0.0 0.0 0.00 0.00 0.00 95 1019.6
20260506152812 11 231 0.0 0.0 0.00 0.00 0.00 95 1019.6
20260506152323 11 231 0.0 0.0 0.00 0.00 0.00 95 1019.6
20260506151816 11 231 0.0 0.0 0.00 0.00 0.00 94 1019.6
20260506151347 11 257 0.0 0.0 0.00 0.00 0.00 95 1019.7
20260506150818 11 257 0.0 0.0 0.00 0.00 0.00 95 1019.6
20260506150328 11 257 0.0 0.0 0.00 0.00 0.00 95 1019.6
20260506145817 11 257 0.0 0.0 0.00 0.00 0.00 95 1019.6
20260506145328 11 257 0.0 0.0 0.00 0.00 0.00 95 1019.8
20260506144838 11 257 0.0 0.0 0.00 0.00 0.00 95 1019.5
20260506144327 11 257 0.0 0.0 0.00 0.00 0.00 95 1019.1
20260506143819 11 257 0.0 0.0 0.00 0.00 0.00 95 1019.0
20260506143330 11 257 0.0 0.0 0.00 0.00 0.00 95 1019.1
20260506142820 11 257 0.0 0.0 0.00 0.00 0.00 95 1019.2
20260506142314 11 257 0.0 0.0 0.00 0.00 0.00 95 1019.2
20260506141825 11 257 0.0 0.0 0.00 0.00 0.00 94 1019.1
20260506141315 11 257 0.0 0.0 0.00 0.00 0.00 94 1019.3
20260506140826 11 257 0.0 0.0 0.00 0.00 0.00 94 1019.3
20260506140315 11 257 0.0 0.0 0.00 0.00 0.00 94 1019.2
20260506135825 10 257 0.0 0.0 0.00 0.00 0.00 94 1019.4
20260506135314 10 257 0.0 0.0 0.00 0.00 0.00 94 1019.4
20260506134825 10 257 0.0 0.0 0.00 0.00 0.00 94 1019.4
20260506134314 10 257 0.0 0.0 0.00 0.00 0.00 94 1019.3
20260506133824 10 257 0.0 0.0 0.00 0.00 0.00 94 1019.2
20260506133319 11 257 0.0 0.0 0.00 0.00 0.00 94 1019.3
20260506132831 11 257 0.0 0.0 0.00 0.00 0.00 94 1019.3
20260506132341 11 257 0.0 0.0 0.00 0.00 0.00 94 1019.3
20260506131830 11 257 0.0 0.0 0.00 0.00 0.00 94 1019.0
20260506131319 11 257 0.0 0.0 0.00 0.00 0.00 94 1019.0
20260506130828 11 257 0.0 0.0 0.00 0.00 0.00 94 1019.0
20260506130318 11 257 0.0 0.0 0.00 0.00 0.00 94 1018.8
20260506125830 11 257 0.0 0.0 0.00 0.00 0.00 94 1018.9
20260506125320 11 257 0.0 0.0 0.00 0.00 0.00 94 1018.9
20260506124850 11 257 0.0 0.0 0.00 0.00 0.00 94 1018.9
20260506124320 11 257 0.0 0.0 0.00 0.00 0.00 94 1018.8
20260506123814 11 257 0.0 0.0 0.00 0.00 0.00 94 1018.7
20260506123324 11 257 0.0 0.0 0.00 0.00 0.00 94 1018.7
20260506122815 11 257 0.0 0.0 0.00 0.00 0.00 94 1018.5
20260506122326 11 257 0.0 0.0 0.00 0.00 0.00 93 1018.6
20260506121816 11 257 0.0 0.0 0.00 0.00 0.00 93 1018.5
20260506121326 11 257 0.0 0.0 0.00 0.00 0.00 93 1018.4
20260506120815 11 257 0.0 0.0 0.00 0.00 0.00 93 1018.5
20260506120325 11 257 0.0 0.0 0.00 0.00 0.00 93 1018.4
20260506115816 11 257 0.0 0.0 0.00 0.00 0.00 93 1018.4
20260506115326 11 257 0.0 0.0 0.00 0.00 0.00 93 1018.4
20260506114821 11 257 0.0 0.0 0.00 0.00 0.00 93 1018.3
20260506114314 11 257 0.0 0.0 0.00 0.00 0.00 93 1018.3
20260506113845 11 257 0.0 0.0 0.00 0.00 0.00 93 1018.3
20260506113336 11 257 0.0 0.0 0.00 0.00 0.00 92 1018.3
20260506112826 11 257 0.0 0.0 0.00 0.00 0.00 92 1018.3
20260506112316 11 257 0.0 0.0 0.00 0.00 0.00 92 1018.3
20260506111826 11 257 0.0 0.0 0.00 0.00 0.00 92 1018.3
20260506111316 11 257 0.0 0.0 0.00 0.00 0.00 92 1018.3
20260506110827 11 257 0.0 0.0 0.00 0.00 0.00 92 1018.3
20260506110316 11 257 0.0 0.0 0.00 0.00 0.00 92 1018.3
20260506105827 11 257 0.0 0.0 0.00 0.00 0.00 92 1018.2
20260506105322 11 257 0.0 0.0 0.00 0.00 0.00 92 1018.2
20260506104812 11 257 0.0 0.0 0.00 0.00 0.00 92 1018.2
20260506104342 11 257 0.0 0.0 0.00 0.00 0.00 92 1018.1
20260506103831 11 233 0.0 0.0 0.00 0.00 0.00 91 1018.0
20260506103320 11 248 0.0 0.0 0.00 0.00 0.00 91 1018.0
20260506102830 11 248 0.0 0.0 0.00 0.00 0.00 91 1017.9
20260506102320 11 248 0.0 0.0 0.00 0.00 0.00 91 1017.9
20260506101830 11 275 0.0 0.0 0.00 0.00 0.00 90 1017.9
20260506101320 11 331 0.0 0.0 0.00 0.00 0.00 90 1017.9
20260506100813 11 331 0.0 0.0 0.00 0.00 0.00 90 1017.8
20260506100324 11 257 0.0 0.0 0.00 0.00 0.00 90 1017.7
20260506095813 11 232 0.0 0.0 0.00 0.00 0.00 90 1017.7
20260506095344 11 255 0.0 0.0 0.00 0.00 0.00 90 1017.7
20260506094833 11 255 0.0 0.0 0.00 0.00 0.00 90 1017.7
20260506094322 11 255 0.0 0.0 0.00 0.00 0.00 90 1017.6
20260506093812 11 255 0.0 0.0 0.00 0.00 0.00 90 1017.6
20260506093342 11 260 0.0 0.0 0.00 0.00 0.00 91 1017.6
20260506092812 11 260 0.0 0.0 0.00 0.00 0.00 91 1017.6
20260506092323 11 260 0.0 0.0 0.00 0.00 0.00 92 1017.6
20260506091813 11 260 0.0 0.0 0.00 0.00 0.00 92 1017.6
20260506091326 11 260 0.0 0.0 0.00 0.00 0.00 92 1017.6
20260506090815 11 260 0.0 0.0 0.00 0.00 0.00 92 1017.5
20260506090325 11 260 0.0 0.0 0.00 0.00 0.00 92 1017.4
20260506085835 11 260 0.0 0.0 0.00 0.00 0.00 92 1017.4
20260506085324 11 260 0.0 0.0 0.00 0.00 0.00 93 1017.4
20260506084814 11 260 0.0 0.0 0.00 0.00 0.00 94 1017.4
20260506084325 11 260 0.0 0.0 0.00 0.00 0.00 94 1017.4
20260506083816 11 273 0.0 0.0 0.00 0.00 0.00 94 1017.4
20260506083327 11 55 0.0 0.0 0.00 0.00 0.00 95 1017.3
20260506082823 11 55 0.0 0.0 0.00 0.00 0.00 95 1017.2
20260506082313 11 55 0.0 0.0 0.00 0.00 0.00 95 1017.3
20260506081824 11 55 0.0 0.0 0.00 0.00 0.00 95 1017.2
20260506081314 11 55 0.0 0.0 0.00 0.00 0.00 95 1017.1
20260506080824 11 55 0.0 0.0 0.00 0.00 0.00 95 1017.0
20260506080334 11 55 0.0 0.0 0.00 0.00 0.00 95 1017.0
20260506073320 11 55 0.0 0.0 0.00 0.00 0.00 95 1016.8
20260506072831 11 55 0.0 0.0 0.00 0.00 0.00 95 1016.8
20260506072322 11 10 0.0 0.0 0.00 0.00 0.00 95 1016.7
20260506071852 11 10 0.0 0.0 0.00 0.00 0.00 95 1016.8
20260506071321 11 10 0.0 0.0 0.00 0.00 0.00 95 1016.7
20260506070832 11 10 0.0 0.0 0.00 0.00 0.00 95 1016.7
20260506070321 11 10 0.0 0.0 0.00 0.00 0.00 95 1016.7